| time (UTC) | temp F | wind direction | speed knots | gust knots | rain 1hr in | rain 24hr in | rain mn in | humidity % | barometer mb |
| 20260507161559 | 58 | 244 | 2.6 | 6.1 | 0.01 | 0.04 | 0.04 | 80 | 1014.7 |
| 20260507160558 | 58 | 240 | 3.5 | 5.2 | 0.01 | 0.04 | 0.04 | 78 | 1014.8 |
| 20260507155556 | 58 | 241 | 2.6 | 5.2 | 0.01 | 0.04 | 0.04 | 78 | 1014.8 |
| 20260507154553 | 58 | 239 | 3.5 | 5.2 | 0.00 | 0.03 | 0.03 | 78 | 1014.8 |
| 20260507153611 | 58 | 243 | 3.5 | 7.8 | 0.00 | 0.03 | 0.03 | 77 | 1014.7 |
| 20260507152548 | 59 | 236 | 3.5 | 6.1 | 0.01 | 0.03 | 0.03 | 78 | 1014.6 |
| 20260507151547 | 59 | 236 | 3.5 | 7.0 | 0.01 | 0.06 | 0.03 | 79 | 1014.6 |
| 20260507150545 | 59 | 234 | 2.6 | 5.2 | 0.01 | 0.09 | 0.03 | 79 | 1014.6 |
| 20260507145543 | 58 | 237 | 2.6 | 4.3 | 0.01 | 0.10 | 0.03 | 79 | 1014.6 |
| 20260507144541 | 58 | 241 | 2.6 | 6.1 | 0.01 | 0.10 | 0.03 | 77 | 1014.7 |
| 20260507143540 | 59 | 244 | 1.7 | 6.1 | 0.00 | 0.10 | 0.02 | 75 | 1014.7 |
| 20260507142557 | 59 | 246 | 2.6 | 7.0 | 0.00 | 0.09 | 0.02 | 73 | 1014.6 |
| 20260507141615 | 60 | 236 | 2.6 | 6.1 | 0.00 | 0.09 | 0.02 | 72 | 1014.5 |
| 20260507140534 | 60 | 232 | 2.6 | 6.1 | 0.00 | 0.09 | 0.02 | 72 | 1014.5 |
| 20260507135531 | 60 | 232 | 2.6 | 6.1 | 0.00 | 0.09 | 0.02 | 71 | 1014.6 |
| 20260507134529 | 60 | 246 | 2.6 | 6.1 | 0.00 | 0.09 | 0.02 | 71 | 1014.6 |
| 20260507133547 | 61 | 282 | 2.6 | 7.0 | 0.00 | 0.09 | 0.02 | 72 | 1014.6 |
| 20260507132525 | 61 | 259 | 2.6 | 6.1 | 0.00 | 0.09 | 0.02 | 74 | 1014.6 |
| 20260507131523 | 61 | 252 | 2.6 | 6.1 | 0.00 | 0.09 | 0.02 | 75 | 1014.6 |
| 20260507130521 | 60 | 256 | 1.7 | 5.2 | 0.00 | 0.09 | 0.02 | 74 | 1014.6 |
| 20260507125540 | 60 | 239 | 3.5 | 7.0 | 0.00 | 0.09 | 0.02 | 73 | 1014.5 |
| 20260507124517 | 60 | 231 | 3.5 | 7.8 | 0.00 | 0.09 | 0.02 | 73 | 1014.5 |
| 20260507123514 | 60 | 231 | 2.6 | 5.2 | 0.00 | 0.09 | 0.02 | 74 | 1014.5 |
| 20260507122513 | 60 | 247 | 2.6 | 5.2 | 0.00 | 0.09 | 0.02 | 76 | 1014.4 |
| 20260507121511 | 60 | 248 | 2.6 | 6.1 | 0.00 | 0.09 | 0.02 | 75 | 1014.4 |
| 20260507120509 | 60 | 246 | 2.6 | 7.0 | 0.00 | 0.09 | 0.02 | 69 | 1014.4 |
| 20260507115509 | 61 | 249 | 2.6 | 6.1 | 0.00 | 0.09 | 0.02 | 67 | 1014.5 |
| 20260507114525 | 62 | 221 | 3.5 | 7.8 | 0.00 | 0.09 | 0.02 | 65 | 1014.4 |
| 20260507113504 | 64 | 295 | 2.6 | 7.0 | 0.00 | 0.09 | 0.02 | 64 | 1014.4 |
| 20260507112522 | 65 | 313 | 3.5 | 6.1 | 0.00 | 0.09 | 0.02 | 64 | 1014.4 |
| 20260507111500 | 65 | 245 | 2.6 | 7.8 | 0.00 | 0.09 | 0.02 | 64 | 1014.4 |
| 20260507110517 | 64 | 260 | 1.7 | 4.3 | 0.00 | 0.09 | 0.02 | 62 | 1014.4 |
| 20260507105455 | 64 | 243 | 1.7 | 3.5 | 0.00 | 0.09 | 0.02 | 63 | 1014.5 |
| 20260507104453 | 64 | 270 | 1.7 | 5.2 | 0.00 | 0.09 | 0.02 | 64 | 1014.6 |
| 20260507103451 | 64 | 231 | 0.9 | 3.5 | 0.00 | 0.09 | 0.02 | 67 | 1014.7 |
| 20260507102449 | 63 | 231 | 0.9 | 3.5 | 0.00 | 0.09 | 0.02 | 67 | 1014.7 |
| 20260507101507 | 62 | 249 | 1.7 | 4.3 | 0.00 | 0.09 | 0.02 | 67 | 1014.8 |
| 20260507100445 | 62 | 254 | 1.7 | 3.5 | 0.00 | 0.09 | 0.02 | 70 | 1014.9 |
| 20260507095443 | 62 | 250 | 1.7 | 3.5 | 0.00 | 0.09 | 0.02 | 71 | 1014.9 |
| 20260507094441 | 61 | 249 | 1.7 | 5.2 | 0.00 | 0.09 | 0.02 | 71 | 1015.0 |
| 20260507093439 | 61 | 270 | 1.7 | 3.5 | 0.00 | 0.08 | 0.01 | 71 | 1015.0 |
| 20260507092438 | 60 | 244 | 1.7 | 3.5 | 0.00 | 0.08 | 0.01 | 73 | 1015.0 |
| 20260507091456 | 60 | 241 | 1.7 | 4.3 | 0.00 | 0.08 | 0.01 | 74 | 1015.0 |
| 20260507090433 | 60 | 228 | 1.7 | 5.2 | 0.00 | 0.08 | 0.01 | 77 | 1014.9 |
| 20260507085431 | 59 | 283 | 1.7 | 3.5 | 0.00 | 0.08 | 0.01 | 78 | 1014.9 |
| 20260507084429 | 58 | 270 | 1.7 | 3.5 | 0.00 | 0.08 | 0.01 | 80 | 1014.8 |
| 20260507083427 | 57 | 250 | 0.9 | 1.7 | 0.00 | 0.08 | 0.01 | 79 | 1014.9 |
| 20260507082425 | 56 | 244 | 1.7 | 3.5 | 0.00 | 0.08 | 0.01 | 82 | 1014.9 |
| 20260507081423 | 56 | 257 | 1.7 | 3.5 | 0.00 | 0.08 | 0.01 | 85 | 1014.9 |
| 20260507080421 | 55 | 240 | 1.7 | 4.3 | 0.00 | 0.08 | 0.01 | 86 | 1014.9 |
| 20260507075418 | 55 | 250 | 0.9 | 2.6 | 0.00 | 0.08 | 0.01 | 87 | 1014.9 |
| 20260507074437 | 54 | 251 | 0.9 | 2.6 | 0.00 | 0.08 | 0.01 | 88 | 1014.8 |
| 20260507073415 | 54 | 257 | 1.7 | 4.3 | 0.00 | 0.08 | 0.01 | 89 | 1014.8 |
| 20260507072414 | 54 | 270 | 1.7 | 4.3 | 0.00 | 0.08 | 0.01 | 91 | 1014.8 |
| 20260507071411 | 53 | 259 | 1.7 | 3.5 | 0.00 | 0.08 | 0.01 | 91 | 1014.9 |
| 20260507070409 | 53 | 270 | 0.9 | 2.6 | 0.00 | 0.08 | 0.01 | 91 | 1014.8 |
| 20260507065408 | 52 | 249 | 0.9 | 2.6 | 0.00 | 0.08 | 0.01 | 91 | 1014.7 |
| 20260507064405 | 52 | 270 | 0.9 | 1.7 | 0.00 | 0.08 | 0.01 | 91 | 1014.6 |
| 20260507063403 | 52 | 258 | 1.7 | 2.6 | 0.00 | 0.08 | 0.01 | 91 | 1014.6 |
| 20260507062401 | 52 | 270 | 0.9 | 1.7 | 0.00 | 0.08 | 0.01 | 91 | 1014.6 |
| 20260507061359 | 51 | 270 | 0.9 | 1.7 | 0.00 | 0.08 | 0.01 | 91 | 1014.5 |
| 20260507060357 | 51 | 270 | 0.9 | 2.6 | 0.00 | 0.08 | 0.01 | 91 | 1014.4 |
| 20260507055357 | 51 | 270 | 1.7 | 3.5 | 0.00 | 0.08 | 0.01 | 91 | 1014.3 |
| 20260507054414 | 50 | 254 | 1.7 | 2.6 | 0.00 | 0.08 | 0.01 | 91 | 1014.2 |
| 20260507053351 | 50 | 251 | 0.9 | 2.6 | 0.00 | 0.08 | 0.01 | 91 | 1014.2 |
| 20260507052409 | 49 | 250 | 0.9 | 2.6 | 0.00 | 0.08 | 0.01 | 91 | 1014.1 |
| 20260507051347 | 49 | 255 | 1.7 | 3.5 | 0.00 | 0.08 | 0.01 | 91 | 1013.9 |
| 20260507050345 | 49 | 250 | 1.7 | 2.6 | 0.00 | 0.08 | 0.01 | 91 | 1013.8 |
| 20260507045343 | 49 | 258 | 1.7 | 3.5 | 0.00 | 0.08 | 0.01 | 91 | 1013.7 |
| 20260507044340 | 49 | 270 | 0.9 | 2.6 | 0.00 | 0.08 | 0.01 | 91 | 1013.5 |
| 20260507043339 | 49 | 270 | 0.9 | 2.6 | 0.00 | 0.08 | 0.01 | 91 | 1013.4 |
| 20260507042358 | 49 | 270 | 1.7 | 2.6 | 0.00 | 0.08 | 0.01 | 91 | 1013.4 |
| 20260507041356 | 49 | 270 | 0.9 | 2.6 | 0.00 | 0.08 | 0.01 | 91 | 1013.3 |
| 20260507040333 | 49 | 282 | 1.7 | 3.5 | 0.00 | 0.08 | 0.01 | 90 | 1013.3 |
| 20260507035331 | 49 | 278 | 1.7 | 3.5 | 0.00 | 0.08 | 0.01 | 89 | 1013.2 |
| 20260507034329 | 49 | 270 | 1.7 | 2.6 | 0.00 | 0.08 | 0.01 | 89 | 1013.2 |
| 20260507033347 | 49 | 270 | 1.7 | 3.5 | 0.00 | 0.08 | 0.01 | 89 | 1013.0 |
| 20260507032325 | 49 | 270 | 0.9 | 2.6 | 0.00 | 0.08 | 0.01 | 89 | 1013.0 |
| 20260507031323 | 50 | 270 | 1.7 | 3.5 | 0.00 | 0.08 | 0.01 | 89 | 1012.9 |
| 20260507030322 | 50 | 270 | 1.7 | 3.5 | 0.00 | 0.08 | 0.01 | 89 | 1012.9 |
| 20260507025319 | 50 | 270 | 1.7 | 3.5 | 0.00 | 0.08 | 0.01 | 90 | 1012.9 |
| 20260507024317 | 50 | 270 | 0.9 | 3.5 | 0.00 | 0.08 | 0.01 | 89 | 1012.9 |
| 20260507023316 | 50 | 270 | 0.9 | 2.6 | 0.00 | 0.08 | 0.01 | 89 | 1012.9 |
| 20260507022313 | 50 | 281 | 1.7 | 3.5 | 0.00 | 0.08 | 0.01 | 89 | 1012.8 |
| 20260507021312 | 50 | 270 | 0.9 | 2.6 | 0.00 | 0.08 | 0.01 | 89 | 1012.7 |
| 20260507020309 | 50 | 270 | 1.7 | 3.5 | 0.00 | 0.08 | 0.01 | 88 | 1012.7 |
| 20260507015307 | 50 | 270 | 1.7 | 3.5 | 0.00 | 0.08 | 0.01 | 88 | 1012.6 |
| 20260507014325 | 50 | 281 | 1.7 | 2.6 | 0.00 | 0.08 | 0.01 | 87 | 1012.5 |
| 20260507013304 | 51 | 270 | 1.7 | 2.6 | 0.00 | 0.08 | 0.01 | 87 | 1012.5 |
| 20260507012305 | 51 | 302 | 0.9 | 1.7 | 0.00 | 0.08 | 0.01 | 88 | 1012.5 |
| 20260507011259 | 51 | 270 | 0.9 | 2.6 | 0.00 | 0.08 | 0.01 | 88 | 1012.4 |
| 20260507010317 | 51 | 270 | 1.7 | 3.5 | 0.00 | 0.08 | 0.01 | 88 | 1012.4 |
| 20260507005255 | 51 | 270 | 1.7 | 3.5 | 0.00 | 0.08 | 0.01 | 87 | 1012.4 |
| 20260507004313 | 51 | 270 | 0.9 | 2.6 | 0.00 | 0.08 | 0.01 | 87 | 1012.4 |
| 20260507003250 | 51 | 285 | 0.9 | 1.7 | 0.00 | 0.08 | 0.01 | 87 | 1012.3 |
| 20260507002249 | 51 | 270 | 1.7 | 2.6 | 0.00 | 0.08 | 0.01 | 88 | 1012.3 |
| 20260507001247 | 51 | 270 | 1.7 | 2.6 | 0.00 | 0.08 | 0.01 | 88 | 1012.2 |
| 20260507000245 | 51 | 270 | 0.9 | 2.6 | 0.01 | 0.08 | 0.01 | 87 | 1012.3 |
| 20260506235244 | 52 | 341 | 0.9 | 1.7 | 0.01 | 0.08 | 0.01 | 88 | 1012.3 |
| 20260506234241 | 51 | 283 | 1.7 | 2.6 | 0.01 | 0.08 | 0.01 | 87 | 1012.3 |
| 20260506233301 | 51 | 270 | 0.9 | 2.6 | 0.01 | 0.08 | 0.01 | 87 | 1012.4 |
| 20260506232237 | 51 | 270 | 1.7 | 3.5 | 0.01 | 0.08 | 0.01 | 86 | 1012.3 |
| 20260506231235 | 51 | 270 | 1.7 | 3.5 | 0.01 | 0.08 | 0.01 | 85 | 1012.3 |
| 20260506230233 | 51 | 254 | 1.7 | 3.5 | 0.00 | 0.07 | 0.00 | 85 | 1012.2 |
| 20260506225231 | 52 | 258 | 1.7 | 3.5 | 0.00 | 0.07 | 0.00 | 84 | 1012.2 |
| 20260506224230 | 52 | 270 | 1.7 | 3.5 | 0.00 | 0.07 | 0.00 | 83 | 1012.1 |
| 20260506223227 | 52 | 270 | 1.7 | 3.5 | 0.00 | 0.07 | 0.00 | 82 | 1012.1 |
| 20260506222224 | 52 | 270 | 1.7 | 2.6 | 0.00 | 0.07 | 0.00 | 82 | 1012.0 |
| 20260506221224 | 52 | 270 | 0.9 | 3.5 | 0.00 | 0.07 | 0.00 | 82 | 1012.0 |
| 20260506220221 | 52 | 270 | 1.7 | 3.5 | 0.00 | 0.07 | 0.00 | 82 | 1011.9 |
| 20260506215219 | 52 | 270 | 1.7 | 2.6 | 0.00 | 0.07 | 0.07 | 82 | 1011.8 |
| 20260506214217 | 52 | 270 | 0.9 | 1.7 | 0.00 | 0.07 | 0.07 | 82 | 1011.8 |
| 20260506213216 | 52 | 270 | 0.9 | 2.6 | 0.00 | 0.07 | 0.07 | 82 | 1011.8 |
| 20260506212213 | 52 | 270 | 1.7 | 3.5 | 0.00 | 0.07 | 0.07 | 81 | 1011.8 |
| 20260506211211 | 52 | 280 | 1.7 | 2.6 | 0.00 | 0.07 | 0.07 | 81 | 1011.7 |
| 20260506210209 | 52 | 270 | 0.9 | 1.7 | 0.00 | 0.07 | 0.07 | 80 | 1011.6 |
| 20260506205207 | 52 | 270 | 0.9 | 1.7 | 0.00 | 0.07 | 0.07 | 80 | 1011.6 |
| 20260506204205 | 52 | 270 | 1.7 | 3.5 | 0.00 | 0.07 | 0.07 | 80 | 1011.6 |
| 20260506203203 | 53 | 262 | 1.7 | 3.5 | 0.00 | 0.07 | 0.07 | 80 | 1011.6 |
| 20260506202221 | 53 | 270 | 1.7 | 3.5 | 0.00 | 0.07 | 0.07 | 79 | 1011.5 |
| 20260506201200 | 53 | 270 | 1.7 | 2.6 | 0.00 | 0.07 | 0.07 | 79 | 1011.4 |
| 20260506200157 | 53 | 270 | 1.7 | 2.6 | 0.00 | 0.07 | 0.07 | 78 | 1011.4 |
| 20260506195154 | 52 | 270 | 0.9 | 1.7 | 0.00 | 0.07 | 0.07 | 78 | 1011.3 |
| 20260506194153 | 53 | 290 | 0.9 | 1.7 | 0.00 | 0.07 | 0.07 | 78 | 1011.1 |
| 20260506193151 | 53 | 288 | 0.9 | 1.7 | 0.00 | 0.07 | 0.07 | 78 | 1010.9 |
| 20260506192149 | 53 | 270 | 0.9 | 2.6 | 0.00 | 0.07 | 0.07 | 77 | 1010.8 |
| 20260506191147 | 53 | 270 | 0.9 | 2.6 | 0.00 | 0.07 | 0.07 | 76 | 1010.8 |
| 20260506190145 | 54 | 270 | 0.9 | 2.6 | 0.00 | 0.07 | 0.07 | 76 | 1010.5 |
| 20260506185143 | 54 | 270 | 0.9 | 1.7 | 0.00 | 0.07 | 0.07 | 76 | 1010.5 |
| 20260506184141 | 54 | 270 | 0.9 | 2.6 | 0.00 | 0.07 | 0.07 | 76 | 1010.2 |
| 20260506183159 | 54 | 270 | 0.9 | 1.7 | 0.00 | 0.07 | 0.07 | 76 | 1010.1 |
| 20260506182138 | 54 | 270 | 1.7 | 2.6 | 0.00 | 0.07 | 0.07 | 76 | 1010.0 |
| 20260506181135 | 54 | 270 | 0.9 | 2.6 | 0.00 | 0.07 | 0.07 | 76 | 1010.0 |
| 20260506180133 | 54 | 270 | 1.7 | 2.6 | 0.00 | 0.07 | 0.07 | 75 | 1009.9 |
| 20260506175151 | 54 | 253 | 1.7 | 3.5 | 0.00 | 0.07 | 0.07 | 74 | 1009.8 |
| 20260506174128 | 55 | 247 | 2.6 | 5.2 | 0.00 | 0.07 | 0.07 | 73 | 1009.8 |
| 20260506173126 | 55 | 253 | 1.7 | 5.2 | 0.00 | 0.07 | 0.07 | 73 | 1009.7 |
| 20260506172124 | 56 | 240 | 1.7 | 4.3 | 0.00 | 0.07 | 0.07 | 73 | 1009.7 |
| 20260506171122 | 56 | 246 | 1.7 | 3.5 | 0.00 | 0.07 | 0.07 | 72 | 1009.5 |
| 20260506170121 | 56 | 239 | 1.7 | 2.6 | 0.00 | 0.07 | 0.07 | 71 | 1009.2 |
| 20260506165118 | 56 | 243 | 1.7 | 4.3 | 0.00 | 0.07 | 0.07 | 71 | 1009.1 |
| 20260506164117 | 56 | 270 | 1.7 | 3.5 | 0.00 | 0.07 | 0.07 | 73 | 1009.0 |
| 20260506163134 | 56 | 270 | 1.7 | 2.6 | 0.00 | 0.07 | 0.07 | 74 | 1009.0 |